Schneifelwetter: Wetterstation Hallschlag, 537 m . NN
Wetterdaten: Montag, 27.12.2010
Datum Zeit Temp. A. Feuchte A. Luftdruck Regen Wind Richtung Richtung Sonnenschein Helligkeit T Regen Taupunkt Windchill
27.12.2010 00:09 -3,4 C 98 % 1020 hPa 0,0 l/m 8,0 km/h (2 Bft) N-NO 25 0 min 0 lux 0,00 min -3,7 C -5,2 C
27.12.2010 00:24 -3,4 C 98 % 1020 hPa 0,0 l/m 0,0 km/h (0 Bft) N-NO 20 0 min 0 lux 0,00 min -3,7 C -3,4 C
27.12.2010 00:39 -3,4 C 98 % 1020 hPa 0,0 l/m 0,0 km/h (0 Bft) N-NO 20 0 min 0 lux 0,00 min -3,7 C -3,4 C
27.12.2010 00:54 -3,4 C 98 % 1020 hPa 0,0 l/m 0,0 km/h (0 Bft) N-NO 20 0 min 0 lux 0,00 min -3,7 C -3,4 C
27.12.2010 01:09 -3,4 C 98 % 1020 hPa 0,0 l/m 0,0 km/h (0 Bft) N-NO 20 0 min 0 lux 0,00 min -3,7 C -3,4 C
27.12.2010 01:24 -3,5 C 98 % 1020 hPa 0,0 l/m 0,0 km/h (0 Bft) N-NO 20 0 min 0 lux 0,00 min -3,8 C -3,5 C
27.12.2010 01:39 -3,5 C 98 % 1020 hPa 0,0 l/m 0,0 km/h (0 Bft) N-NO 20 0 min 0 lux 0,00 min -3,8 C -3,5 C
27.12.2010 01:54 -3,5 C 98 % 1020 hPa 0,0 l/m 0,0 km/h (0 Bft) N-NO 20 0 min 0 lux 0,00 min -3,8 C -3,5 C
27.12.2010 02:09 -3,6 C 98 % 1020 hPa 0,0 l/m 0,0 km/h (0 Bft) N-NO 20 0 min 0 lux 0,00 min -3,9 C -3,6 C
27.12.2010 02:24 -3,6 C 98 % 1020 hPa 0,0 l/m 0,0 km/h (0 Bft) N-NO 20 0 min 0 lux 0,00 min -3,9 C -3,6 C
27.12.2010 02:39 -3,6 C 98 % 1020 hPa 0,0 l/m 0,0 km/h (0 Bft) N-NO 20 0 min 0 lux 0,00 min -3,9 C -3,6 C
27.12.2010 02:54 -3,7 C 98 % 1020 hPa 0,0 l/m 0,0 km/h (0 Bft) N-NO 20 0 min 0 lux 0,00 min -4,0 C -3,7 C
27.12.2010 03:09 -3,8 C 98 % 1020 hPa 0,0 l/m 0,0 km/h (0 Bft) N-NO 20 0 min 0 lux 0,00 min -4,1 C -3,8 C
27.12.2010 03:24 -3,8 C 98 % 1020 hPa 0,0 l/m 0,0 km/h (0 Bft) N-NO 20 0 min 0 lux 0,00 min -4,1 C -3,8 C
27.12.2010 03:39 -3,8 C 98 % 1020 hPa 0,0 l/m 0,0 km/h (0 Bft) N-NO 20 0 min 0 lux 0,00 min -4,1 C -3,8 C
27.12.2010 03:54 -3,8 C 98 % 1020 hPa 0,0 l/m 0,0 km/h (0 Bft) N-NO 20 0 min 0 lux 0,00 min -4,1 C -3,8 C
27.12.2010 04:09 -3,9 C 98 % 1020 hPa 0,0 l/m 0,0 km/h (0 Bft) N-NO 20 0 min 0 lux 0,00 min -4,2 C -3,9 C
27.12.2010 04:24 -3,9 C 98 % 1020 hPa 0,0 l/m 0,0 km/h (0 Bft) N-NO 20 0 min 0 lux 0,00 min -4,2 C -3,9 C
27.12.2010 04:39 -4,0 C 98 % 1020 hPa 0,0 l/m 0,0 km/h (0 Bft) N-NO 20 0 min 0 lux 0,00 min -4,3 C -4,0 C
27.12.2010 04:54 -4,0 C 98 % 1019 hPa 0,0 l/m 0,0 km/h (0 Bft) N-NO 20 0 min 0 lux 0,00 min -4,3 C -4,0 C
27.12.2010 05:09 -4,1 C 98 % 1019 hPa 0,0 l/m 0,0 km/h (0 Bft) N-NO 20 0 min 0 lux 0,00 min -4,4 C -4,1 C
27.12.2010 05:24 -4,1 C 98 % 1019 hPa 0,0 l/m 0,0 km/h (0 Bft) N-NO 20 0 min 0 lux 0,00 min -4,4 C -4,1 C
27.12.2010 05:39 -4,1 C 98 % 1019 hPa 0,0 l/m 0,0 km/h (0 Bft) N-NO 15 0 min 0 lux 0,00 min -4,4 C -4,1 C
27.12.2010 05:54 -4,2 C 98 % 1019 hPa 0,0 l/m 0,0 km/h (0 Bft) N-NO 15 0 min 0 lux 0,00 min -4,5 C -4,2 C
27.12.2010 06:09 -4,2 C 99 % 1019 hPa 0,0 l/m 0,0 km/h (0 Bft) N-NO 15 0 min 0 lux 0,00 min -4,3 C -4,2 C
27.12.2010 06:24 -4,2 C 99 % 1019 hPa 0,0 l/m 0,0 km/h (0 Bft) N-NO 15 0 min 0 lux 0,00 min -4,3 C -4,2 C
27.12.2010 06:39 -4,3 C 98 % 1019 hPa 0,0 l/m 0,0 km/h (0 Bft) N-NO 15 0 min 0 lux 0,00 min -4,6 C -4,3 C
27.12.2010 06:54 -4,3 C 99 % 1019 hPa 0,0 l/m 0,0 km/h (0 Bft) N-NO 15 0 min 0 lux 0,00 min -4,4 C -4,3 C
27.12.2010 07:09 -4,4 C 99 % 1019 hPa 0,0 l/m 0,0 km/h (0 Bft) N-NO 15 0 min 0 lux 0,00 min -4,5 C -4,4 C
27.12.2010 07:24 -4,5 C 99 % 1019 hPa 0,0 l/m 0,0 km/h (0 Bft) N-NO 15 0 min 0 lux 0,00 min -4,6 C -4,5 C
27.12.2010 07:39 -4,6 C 99 % 1019 hPa 0,0 l/m 0,0 km/h (0 Bft) N-NO 15 0 min 0 lux 0,00 min -4,7 C -4,6 C
27.12.2010 07:54 -4,6 C 99 % 1019 hPa 0,0 l/m 0,0 km/h (0 Bft) N-NO 15 0 min 0 lux 0,00 min -4,7 C -4,6 C
27.12.2010 08:09 -4,7 C 99 % 1019 hPa 0,0 l/m 0,0 km/h (0 Bft) N-NO 15 0 min 41 lux 0,00 min -4,8 C -4,7 C
27.12.2010 08:24 -4,8 C 99 % 1019 hPa 0,0 l/m 0,0 km/h (0 Bft) N-NO 15 0 min 292 lux 0,00 min -4,9 C -4,8 C
27.12.2010 08:39 -4,8 C 99 % 1019 hPa 0,0 l/m 0,0 km/h (0 Bft) N-NO 15 0 min 411 lux 0,00 min -4,9 C -4,8 C
27.12.2010 08:53 -4,9 C 99 % 1019 hPa 0,0 l/m 0,0 km/h (0 Bft) N-NO 20 0 min 1,01 klux 0,00 min -5,0 C -4,9 C
27.12.2010 09:08 -5,0 C 99 % 1019 hPa 0,0 l/m 0,0 km/h (0 Bft) N-NO 20 0 min 2,07 klux 0,00 min -5,1 C -5,0 C
27.12.2010 09:23 -4,9 C 99 % 1019 hPa 0,0 l/m 0,0 km/h (0 Bft) N-NO 20 0 min 3,72 klux 0,00 min -5,0 C -4,9 C
27.12.2010 09:38 -4,7 C 99 % 1020 hPa 0,0 l/m 0,0 km/h (0 Bft) N-NO 20 0 min 5,86 klux 0,00 min -4,8 C -4,7 C
27.12.2010 09:53 -4,6 C 98 % 1020 hPa 0,0 l/m 0,0 km/h (0 Bft) N-NO 15 0 min 7,52 klux 0,00 min -4,9 C -4,6 C
27.12.2010 10:08 -4,5 C 98 % 1020 hPa 0,0 l/m 0,0 km/h (0 Bft) N-NO 15 0 min 9,5 klux 0,00 min -4,8 C -4,5 C
27.12.2010 10:24 -4,3 C 98 % 1020 hPa 0,0 l/m 0,0 km/h (0 Bft) N-NO 15 0 min 13,5 klux 0,00 min -4,6 C -4,3 C
27.12.2010 10:39 -4,0 C 97 % 1020 hPa 0,0 l/m 0,0 km/h (0 Bft) N-NO 15 0 min 14,0 klux 0,00 min -4,4 C -4,0 C
27.12.2010 10:54 -3,9 C 97 % 1019 hPa 0,0 l/m 0,0 km/h (0 Bft) N-NO 15 0 min 14,4 klux 0,00 min -4,3 C -3,9 C
27.12.2010 11:09 -3,7 C 97 % 1019 hPa 0,0 l/m 0,0 km/h (0 Bft) N-NO 15 0 min 17,6 klux 0,00 min -4,1 C -3,7 C
27.12.2010 11:24 -3,4 C 97 % 1019 hPa 0,0 l/m 0,0 km/h (0 Bft) N-NO 15 0 min 20,5 klux 0,00 min -3,8 C -3,4 C
27.12.2010 11:39 -3,2 C 96 % 1019 hPa 0,0 l/m 0,0 km/h (0 Bft) N-NO 15 0 min 19,6 klux 0,00 min -3,7 C -3,2 C
27.12.2010 11:54 -3,0 C 96 % 1019 hPa 0,0 l/m 0,0 km/h (0 Bft) N-NO 15 0 min 21,5 klux 0,00 min -3,5 C -3,0 C
27.12.2010 12:15 -2,6 C 96 % 1019 hPa 0,0 l/m 0,0 km/h (0 Bft) N-NO 15 0 min 18,0 klux 0,00 min -3,1 C -2,6 C
27.12.2010 12:30 -2,6 C 95 % 1019 hPa 0,0 l/m 0,0 km/h (0 Bft) N-NO 15 0 min 16,8 klux 0,00 min -3,3 C -2,6 C
27.12.2010 12:45 -2,4 C 95 % 1019 hPa 0,0 l/m 0,0 km/h (0 Bft) N-NO 15 0 min 15,6 klux 0,00 min -3,1 C -2,4 C
27.12.2010 13:00 -2,6 C 95 % 1019 hPa 0,0 l/m 0,0 km/h (0 Bft) N-NO 15 0 min 15,5 klux 0,00 min -3,3 C -2,6 C
27.12.2010 13:15 -2,8 C 94 % 1019 hPa 0,0 l/m 0,0 km/h (0 Bft) N-NO 15 0 min 14,5 klux 0,00 min -3,6 C -2,8 C
27.12.2010 13:30 -3,0 C 94 % 1019 hPa 0,0 l/m 0,0 km/h (0 Bft) N-NO 15 0 min 11,7 klux 0,00 min -3,8 C -3,0 C
27.12.2010 13:45 -3,0 C 94 % 1018 hPa 0,0 l/m 0,0 km/h (0 Bft) N-NO 15 0 min 12,6 klux 0,00 min -3,8 C -3,0 C
27.12.2010 14:00 -2,8 C 95 % 1018 hPa 0,0 l/m 0,0 km/h (0 Bft) N-NO 15 0 min 12,9 klux 0,00 min -3,5 C -2,8 C
27.12.2010 14:15 -2,7 C 95 % 1018 hPa 0,0 l/m 0,0 km/h (0 Bft) N-NO 15 0 min 13,0 klux 0,00 min -3,4 C -2,7 C
27.12.2010 14:30 -2,6 C 94 % 1018 hPa 0,0 l/m 0,0 km/h (0 Bft) N-NO 15 0 min 12,7 klux 0,00 min -3,4 C -2,6 C
27.12.2010 14:44 -2,6 C 94 % 1018 hPa 0,0 l/m 0,0 km/h (0 Bft) N-NO 15 0 min 12,5 klux 0,00 min -3,4 C -2,6 C
27.12.2010 15:00 -2,8 C 94 % 1018 hPa 0,0 l/m 0,0 km/h (0 Bft) N-NO 15 0 min 11,2 klux 0,00 min -3,6 C -2,8 C
27.12.2010 15:15 -3,0 C 94 % 1018 hPa 0,0 l/m 0,0 km/h (0 Bft) N-NO 15 0 min 9,9 klux 0,00 min -3,8 C -3,0 C
27.12.2010 15:30 -3,1 C 94 % 1018 hPa 0,0 l/m 0,0 km/h (0 Bft) N-NO 15 0 min 6,30 klux 0,00 min -3,9 C -3,1 C
27.12.2010 15:45 -3,4 C 94 % 1018 hPa 0,0 l/m 0,0 km/h (0 Bft) N-NO 15 0 min 5,43 klux 0,00 min -4,2 C -3,4 C
27.12.2010 16:00 -3,7 C 94 % 1018 hPa 0,0 l/m 0,0 km/h (0 Bft) N-NO 15 0 min 3,13 klux 0,00 min -4,5 C -3,7 C
27.12.2010 16:15 -4,0 C 94 % 1018 hPa 0,0 l/m 0,0 km/h (0 Bft) N-NO 15 0 min 1,15 klux 0,00 min -4,8 C -4,0 C
27.12.2010 16:30 -4,2 C 94 % 1018 hPa 0,0 l/m 0,0 km/h (0 Bft) N-NO 15 0 min 535 lux 0,00 min -5,0 C -4,2 C
27.12.2010 16:45 -4,3 C 95 % 1018 hPa 0,0 l/m 0,0 km/h (0 Bft) N-NO 15 0 min 318 lux 0,00 min -5,0 C -4,3 C
27.12.2010 17:00 -4,5 C 95 % 1018 hPa 0,0 l/m 0,0 km/h (0 Bft) N-NO 15 0 min 114 lux 0,00 min -5,2 C -4,5 C
27.12.2010 17:15 -4,7 C 95 % 1017 hPa 0,0 l/m 0,0 km/h (0 Bft) N-NO 15 0 min 19 lux 0,00 min -5,4 C -4,7 C
27.12.2010 17:30 -4,9 C 95 % 1017 hPa 0,0 l/m 0,0 km/h (0 Bft) N-NO 15 0 min 3 lux 0,00 min -5,6 C -4,9 C
27.12.2010 17:45 -4,9 C 95 % 1017 hPa 0,0 l/m 0,8 km/h (0 Bft) N-NO45 15 0 min 0 lux 0,00 min -5,6 C -4,9 C
27.12.2010 18:00 -5,0 C 96 % 1017 hPa 0,0 l/m 0,0 km/h (0 Bft) N-NO 15 0 min 0 lux 0,00 min -5,5 C -5,0 C
27.12.2010 18:15 -5,1 C 96 % 1017 hPa 0,0 l/m 0,0 km/h (0 Bft) N-NO 15 0 min 0 lux 0,00 min -5,6 C -5,1 C
27.12.2010 18:30 -5,1 C 96 % 1017 hPa 0,0 l/m 0,0 km/h (0 Bft) N-NO 15 0 min 0 lux 0,00 min -5,6 C -5,1 C
27.12.2010 18:45 -5,0 C 96 % 1018 hPa 0,0 l/m 0,0 km/h (0 Bft) N-NO 15 0 min 0 lux 0,00 min -5,5 C -5,0 C
27.12.2010 19:00 -4,9 C 96 % 1018 hPa 0,0 l/m 0,0 km/h (0 Bft) N-NO 15 0 min 0 lux 0,00 min -5,4 C -4,9 C
27.12.2010 19:15 -5,0 C 96 % 1017 hPa 0,0 l/m 0,0 km/h (0 Bft) N-NO 15 0 min 0 lux 0,00 min -5,5 C -5,0 C
27.12.2010 19:30 -5,0 C 96 % 1017 hPa 0,0 l/m 0,0 km/h (0 Bft) N-NO 15 0 min 0 lux 0,00 min -5,5 C -5,0 C
27.12.2010 19:44 -5,0 C 96 % 1017 hPa 0,0 l/m 0,0 km/h (0 Bft) N-NO 15 0 min 0 lux 0,00 min -5,5 C -5,0 C
27.12.2010 20:00 -5,0 C 96 % 1018 hPa 0,0 l/m 0,0 km/h (0 Bft) N-NO 15 0 min 0 lux 0,00 min -5,5 C -5,0 C
27.12.2010 20:15 -4,9 C 95 % 1017 hPa 0,0 l/m 0,0 km/h (0 Bft) N-NO 15 0 min 0 lux 0,00 min -5,6 C -4,9 C
27.12.2010 20:30 -4,9 C 95 % 1017 hPa 0,0 l/m 0,0 km/h (0 Bft) N-NO 15 0 min 0 lux 0,00 min -5,6 C -4,9 C
27.12.2010 20:45 -4,8 C 95 % 1017 hPa 0,0 l/m 0,0 km/h (0 Bft) N-NO 15 0 min 0 lux 0,00 min -5,5 C -4,8 C
27.12.2010 21:00 -4,7 C 95 % 1017 hPa 0,0 l/m 0,0 km/h (0 Bft) N-NO 15 0 min 0 lux 0,00 min -5,4 C -4,7 C
27.12.2010 21:15 -4,6 C 95 % 1017 hPa 0,0 l/m 0,0 km/h (0 Bft) N-NO 15 0 min 0 lux 0,00 min -5,3 C -4,6 C
27.12.2010 21:29 -4,6 C 95 % 1017 hPa 0,0 l/m 0,0 km/h (0 Bft) N-NO 15 0 min 0 lux 0,00 min -5,3 C -4,6 C
27.12.2010 21:45 -4,7 C 95 % 1017 hPa 0,0 l/m 0,0 km/h (0 Bft) N-NO 15 0 min 0 lux 0,00 min -5,4 C -4,7 C
27.12.2010 22:00 -4,8 C 95 % 1017 hPa 0,0 l/m 0,0 km/h (0 Bft) N-NO 15 0 min 0 lux 0,00 min -5,5 C -4,8 C
27.12.2010 22:15 -5,0 C 95 % 1017 hPa 0,0 l/m 0,0 km/h (0 Bft) N-NO 15 0 min 0 lux 0,00 min -5,7 C -5,0 C
27.12.2010 22:30 -5,0 C 95 % 1017 hPa 0,0 l/m 0,0 km/h (0 Bft) N-NO 15 0 min 0 lux 0,00 min -5,7 C -5,0 C
27.12.2010 22:45 -5,1 C 95 % 1016 hPa 0,0 l/m 0,0 km/h (0 Bft) N-NO 15 0 min 0 lux 0,00 min -5,8 C -5,1 C
27.12.2010 23:00 -5,0 C 96 % 1016 hPa 0,0 l/m 0,0 km/h (0 Bft) N-NO 15 0 min 0 lux 0,00 min -5,5 C -5,0 C
27.12.2010 23:15 -4,2 C 95 % 1016 hPa 0,0 l/m 0,0 km/h (0 Bft) N-NO 15 0 min 0 lux 0,00 min -4,9 C -4,2 C
27.12.2010 23:30 -3,9 C 94 % 1016 hPa 0,0 l/m 0,0 km/h (0 Bft) N-NO 15 0 min 0 lux 0,00 min -4,7 C -3,9 C
27.12.2010 23:45 -3,9 C 93 % 1016 hPa 0,0 l/m 0,0 km/h (0 Bft) N-NO 15 0 min 0 lux 0,00 min -4,9 C -3,9 C
_ Min-Zeit 18:15 23:45 22:45 - 00:24 - - - - - 22:45 00:09
Minimum _ -5,1 C 93 % 1016 hPa - 0,0 km/h (0 Bft) - - - - - -5,8 C -5,2 C
_ Max-Zeit 12:45 06:09 00:09 00:09 00:09 - - 00:09 11:54 00:09 12:45 12:45
Maximum _ -2,4 C 99 % 1020 hPa 0,0 l/m 8,0 km/h
N-NO (2 Bft)
- - 0 min 21,5 klux 0,00 min -3,1 C -2,4 C
Durchschnitt _ -4,1 C 97 % 1019 hPa #0,0 l/m 0,1 km/h (0 Bft) N-NO - #0 min. 3,64 klux #0 min. -4,5 C -4,1 C